Date,TemperatureHighF,TemperatureAvgF,TemperatureLowF,DewpointHighF,DewpointAvgF,DewpointLowF,HumidityHigh,HumidityAvg,HumidityLow,PressureMaxIn,PressureMinIn,WindSpeedMaxMPH,WindSpeedAvgMPH,GustSpeedMaxMPH,PrecipitationSumIn
2014-2-1,43.2,37.2,31.8,36.3,25.8,19.8,92,64,47,30.25,29.93,12,2,14,0.00
2014-2-2,56.5,43.1,35.8,41.7,37.5,33.8,97,82,54,29.99,29.81,12,3,14,0.00
2014-2-3,41.7,33.0,28.8,36.0,31.0,27.5,96,93,75,30.21,29.96,16,5,16,0.16
2014-2-4,34.2,28.5,21.9,28.4,25.1,19.8,95,87,74,30.37,30.16,9,3,9,0.36
2014-2-5,33.3,31.4,28.9,32.2,30.0,26.8,96,95,89,30.16,29.52,13,4,14,0.00
2014-2-6,30.2,25.3,21.4,28.4,19.6,16.2,93,79,64,30.18,29.84,19,5,21,0.12
2014-2-7,31.3,25.2,22.1,20.7,17.8,15.6,82,74,57,30.23,30.12,15,4,19,0.01
2014-2-11,24.6,21.7,17.6,10.8,8.3,5.5,70,56,48,30.37,30.19,18,5,19,0.00
2014-2-12,27.0,19.5,13.6,22.5,10.2,4.3,83,67,53,30.46,30.19,16,5,21,0.00
2014-2-13,32.5,31.1,27.0,31.8,30.0,22.3,98,96,82,30.19,28.86,28,5,31,0.00
2014-2-14,40.5,35.1,29.8,34.3,29.0,24.4,98,80,59,29.68,28.86,32,6,40,0.02
2014-2-15,37.2,31.9,28.2,30.7,26.9,21.7,96,82,65,29.70,29.43,28,6,28,0.26
2014-2-16,28.8,25.2,21.4,21.7,14.8,12.0,78,65,52,29.97,29.57,21,7,25,0.00
2014-2-17,31.1,23.1,17.4,12.0,7.1,0.3,69,52,30,30.28,29.97,22,5,27,0.00
2014-2-18,38.7,31.5,21.7,35.8,24.9,9.5,95,77,56,30.26,29.84,20,4,21,0.04
2014-2-19,44.4,37.8,25.5,42.8,34.3,22.5,96,87,72,30.01,29.59,22,4,23,0.72
2014-2-20,50.2,41.2,36.0,37.6,31.1,25.5,96,69,44,30.16,29.86,21,4,23,0.05
2014-2-21,51.4,41.8,36.3,50.9,40.4,35.6,98,95,77,29.96,29.58,23,5,26,0.08
2014-2-22,51.3,42.2,35.4,36.7,32.2,26.2,93,69,40,29.96,29.82,25,5,25,0.00
2014-2-23,54.0,45.3,36.0,37.8,32.6,28.6,92,64,39,29.93,29.73,13,3,15,0.00
2014-2-24,46.2,34.4,25.9,35.2,20.1,8.6,90,58,36,29.97,29.69,26,8,31,0.03
2014-2-25,32.5,26.9,22.3,18.1,12.5,8.2,62,54,48,29.98,29.82,23,5,23,0.00
2014-2-26,30.6,24.6,18.1,25.0,12.3,-1.1,90,61,38,29.88,29.71,18,4,22,0.01
2014-2-27,31.5,22.7,12.7,22.1,7.8,-10.3,78,53,31,29.97,29.52,30,6,32,0.00
2014-2-28,23.0,16.1,9.9,5.2,-2.4,-10.7,69,44,32,30.34,29.97,19,5,21,0.00